[Date Prev][Date Next][Thread Prev][Thread Next] - [Date Index][Thread Index][Author Index]

2 LIne ISS Keps 5-9



ISS
1 25544U 98067A   04130.36064403  .00008712  00000-0  77799-4 0  7409
2 25544  51.6265 163.6249 0010999 114.4982 338.6494 15.69280476312220


----
Via the sarex mailing list at AMSAT.ORG courtesy of AMSAT-NA.
To unsubscribe, send "unsubscribe sarex" to Majordomo@amsat.org



AMSAT Top AMSAT Home